Location: Alvis C Story Elementary School
(33.0968°N, 96.6364°W)
Time: 09:21:08
(UTC+00:00)

CZ-2C R/B - Pass Details

Date: 08 December 2021
Orbit: 784 x 870 km, 98.2° (Epoch: 25 January)

Event Time Altitude Azimuth Distance (km) Brightness Sun altitude
Rises 12:31:18 0° 192° (SSW) 3,409 6.0 -9.7°
Reaches altitude 10° 12:33:57 10° 202° (SSW) 2,466 5.1 -9.2°
Maximum altitude 12:38:43 31° 263° (W) 1,445 3.5 -8.3°
Drops below altitude 10° 12:43:26 10° 324° (NW) 2,429 4.6 -7.3°
Sets 12:46:03 0° 335° (NNW) 3,352 5.4 -6.8°
